Palma de Mallorca, Spain

6:42 AM CET on March 25, 2017 (GMT +0100)
Palma de Mallorca

Weather History for 08306 - October, 2013

Change the Weather History Date:

Saturday, October 12, 2013

  Actual Average Record
Temperature  
Mean Temperature 70 °F -  
Max Temperature 79 °F 69 °F - ()
Min Temperature 62 °F 51 °F - ()
Cooling Degree Days 6    
Growing Degree Days 20 (Base 50)    
Moisture  
Dew Point 60 °F    
Average Humidity 75    
Maximum Humidity 88    
Minimum Humidity 42    
Precipitation  
Precipitation 0.00 in 0.07 in - ()
Sea Level Pressure  
Sea Level Pressure 30.03 in    
Wind  
Wind Speed 6 mph ()    
Max Wind Speed 10 mph    
Max Gust Speed 21 mph    
Visibility 6.6 miles    
Events      
T = Trace of Precipitation, MM = Missing Value Source: Averaged Metar Reports

Daily Weather History Graph

Daily Weather History Graph

Search for Another Location

Airport or City:

Trip Planner

Search our weather history database for the weather conditions in past years. The results will help you decide how hot, cold, wet, or windy it might be!

Date:

Astronomy

Oct. 12, 2013 Rise Set
Actual Time 7:56 AM CEST 7:14 PM CEST
Civil Twilight 7:29 AM CEST 7:41 PM CEST
Nautical Twilight 6:57 AM CEST 8:12 PM CEST
Astronomical Twilight 6:26 AM CEST 8:43 PM CEST
Moon 3:10 PM CEST (10/12) 12:44 AM CEST (10/12)
Length of Visible Light 12h 12m
Length of Day
11h 18m
First Quarter, 55% of the Moon is Illuminated
Oct 12
First Quarter
Oct 19
Full
Oct 27
Last Quarter
Nov 3
New
Nov 10
First Quarter

Hourly Weather History & Observations

Time (CEST) Temp. Dew Point Humidity Pressure Visibility Wind Dir Wind Speed Gust Speed Precip Events Conditions
12:00 AM 64.4 °F 57.2 °F 77% 29.98 in 6.2 mi NE 9.2 mph 20.7 mph N/A   Scattered Clouds
12:30 AM 64.4 °F 57.2 °F 77% 29.98 in 6.2 mi ENE 9.2 mph - N/A   Scattered Clouds
1:00 AM 64.4 °F 57.2 °F 77% 29.98 in 6.2 mi NE 8.1 mph - N/A   Scattered Clouds
1:30 AM 64.4 °F 59.0 °F 83% 29.98 in 6.2 mi ENE 6.9 mph - N/A   Scattered Clouds
2:00 AM 63 °F 58 °F 77% 29.98 in 9 mi NE 4.6 mph - -   Scattered Clouds
2:00 AM 62.6 °F 59.0 °F 88% 29.98 in 6.2 mi ENE 8.1 mph - N/A   Scattered Clouds
2:30 AM 62.6 °F 59.0 °F 88% 29.98 in 6.2 mi ENE 8.1 mph - N/A   Scattered Clouds
3:00 AM 64.4 °F 59.0 °F 83% 29.98 in 6.2 mi ENE 8.1 mph - N/A   Scattered Clouds
3:30 AM 64.4 °F 59.0 °F 83% 29.98 in 6.2 mi ENE 8.1 mph - N/A   Scattered Clouds
4:00 AM 64.4 °F 59.0 °F 83% 29.98 in 6.2 mi NE 8.1 mph - N/A   Mostly Cloudy
4:30 AM 64.4 °F 59.0 °F 83% 29.98 in 6.2 mi NE 8.1 mph - N/A   Mostly Cloudy
5:00 AM 64.4 °F 59.0 °F 83% 29.98 in 6.2 mi ENE 4.6 mph - N/A   Mostly Cloudy
5:30 AM 62.6 °F 59.0 °F 88% 29.98 in 6.2 mi ENE 9.2 mph - N/A   Mostly Cloudy
6:00 AM 62.6 °F 59.0 °F 88% 29.98 in 6.2 mi ENE 8.1 mph - N/A   Mostly Cloudy
6:30 AM 62.6 °F 59.0 °F 88% 29.98 in 6.2 mi ENE 9.2 mph - N/A   Mostly Cloudy
7:00 AM 62.6 °F 59.0 °F 88% 30.01 in 6.2 mi ENE 8.1 mph - N/A   Mostly Cloudy
7:30 AM 62.6 °F 59.0 °F 88% 30.01 in 6.2 mi ENE 5.8 mph - N/A   Mostly Cloudy
8:00 AM 62.6 °F 59.0 °F 88% 30.01 in 6.2 mi ENE 5.8 mph - N/A   Mostly Cloudy
8:30 AM 64.4 °F 59.0 °F 83% 30.01 in 6.2 mi ENE 9.2 mph - N/A   Mostly Cloudy
9:00 AM 64.4 °F 59.0 °F 83% 30.04 in 6.2 mi ENE 6.9 mph - N/A   Mostly Cloudy
9:30 AM 66.2 °F 60.8 °F 83% 30.04 in 6.2 mi ENE 6.9 mph - N/A   Mostly Cloudy
10:00 AM 68.0 °F 60.8 °F 78% 30.04 in 6.2 mi ENE 8.1 mph - N/A   Scattered Clouds
10:30 AM 68.0 °F 60.8 °F 78% 30.04 in 6.2 mi ENE 10.4 mph - N/A   Scattered Clouds
11:00 AM 69.8 °F 60.8 °F 73% 30.04 in 6.2 mi ENE 6.9 mph - N/A   Scattered Clouds
11:30 AM 69.8 °F 60.8 °F 73% 30.06 in 6.2 mi NE 6.9 mph - N/A   Scattered Clouds
12:00 PM 69.8 °F 60.8 °F 73% 30.06 in 6.2 mi ENE 3.5 mph - N/A   Scattered Clouds
12:30 PM 73.4 °F 60.8 °F 65% 30.06 in 6.2 mi East 4.6 mph - N/A   Scattered Clouds
1:00 PM 75.2 °F 60.8 °F 61% 30.06 in 6.2 mi Calm Calm - N/A   Scattered Clouds
1:30 PM 77.0 °F 60.8 °F 57% 30.06 in 6.2 mi WSW 1.2 mph - N/A   Scattered Clouds
2:00 PM 77 °F 58 °F 42% 30.06 in 16 mi SW 6.9 mph - -   Partly Cloudy
2:00 PM 77.0 °F 60.8 °F 57% 30.04 in 6.2 mi SW 4.6 mph - N/A   Scattered Clouds
2:30 PM 77.0 °F 60.8 °F 57% 30.04 in 6.2 mi SW 8.1 mph - N/A   Scattered Clouds
3:00 PM 77.0 °F 59.0 °F 54% 30.04 in 6.2 mi SW 8.1 mph - N/A   Scattered Clouds
3:30 PM 75.2 °F 59.0 °F 57% 30.04 in 6.2 mi SW 6.9 mph - N/A   Scattered Clouds
4:00 PM 77.0 °F 60.8 °F 57% 30.04 in 6.2 mi SW 6.9 mph - N/A   Scattered Clouds
4:30 PM 75.2 °F 60.8 °F 61% 30.04 in 6.2 mi SW 9.2 mph - N/A   Scattered Clouds
5:00 PM 75.2 °F 62.6 °F 65% 30.04 in 6.2 mi SW 8.1 mph - N/A   Scattered Clouds
5:30 PM 75.2 °F 62.6 °F 65% 30.04 in 6.2 mi SW 9.2 mph - N/A   Scattered Clouds
6:00 PM 75.2 °F 64.4 °F 69% 30.04 in 6.2 mi SW 8.1 mph - N/A   Scattered Clouds
6:30 PM 73.4 °F 64.4 °F 73% 30.04 in 6.2 mi SW 5.8 mph - N/A   Scattered Clouds
7:00 PM 73.4 °F 62.6 °F 69% 30.04 in 6.2 mi SW 5.8 mph - N/A   Scattered Clouds
7:30 PM 73.4 °F 62.6 °F 69% 30.04 in 6.2 mi SSW 3.5 mph - N/A   Scattered Clouds
8:00 PM 72 °F 63 °F 65% 30.06 in 12 mi South 4.6 mph - -   Partly Cloudy
8:00 PM 73.4 °F 62.6 °F 69% 30.04 in 6.2 mi South 2.3 mph - N/A   Scattered Clouds
8:30 PM 73.4 °F 62.6 °F 69% 30.06 in 6.2 mi Calm Calm - N/A   Scattered Clouds
9:00 PM 69.8 °F 62.6 °F 78% 30.06 in 6.2 mi East 1.2 mph - N/A   Scattered Clouds
9:30 PM 69.8 °F 60.8 °F 73% 30.06 in 6.2 mi Calm Calm - N/A   Scattered Clouds
10:00 PM 68.0 °F 60.8 °F 78% 30.06 in 6.2 mi Calm Calm - N/A   Scattered Clouds
10:30 PM 66.2 °F 62.6 °F 88% 30.09 in 6.2 mi North 1.2 mph - N/A   Scattered Clouds
11:00 PM 66.2 °F 60.8 °F 83% 30.09 in 6.2 mi NE 1.2 mph - N/A   Scattered Clouds
11:30 PM 64.4 °F 60.8 °F 88% 30.09 in 6.2 mi ENE 2.3 mph - N/A   Partly Cloudy